CW5302 Weather Reports


time (UTC)temp
C
wind
direction
speed
KPH
gust
KPH
rain 1hr
cm
rain 24hr
cm
rain mn
cm
humidity
%
barometer
mb
20260505224336 22 47 0.0 12.9 0.00 0.00 0.00 57 1011.0
20260505223329 21 18 0.0 11.3 0.00 0.00 0.00 60 1011.0
20260505222322 21 13 1.6 9.7 0.00 0.00 0.00 61 1011.3
20260505221333 21 319 1.6 16.1 0.00 0.00 0.00 59 1011.4
20260505220327 21 54 1.6 14.5 0.00 0.00 0.00 61 1011.4
20260505215318 20 347 0.0 11.3 0.00 0.00 0.00 59 1011.5
20260505214333 21 48 1.6 8.0 0.00 0.00 0.00 64 1011.7
20260505213324 20 40 1.6 6.4 0.00 0.00 0.00 62 1011.7
20260505212320 20 24 1.6 11.3 0.00 0.00 0.00 63 1011.9
20260505211337 20 336 3.2 11.3 0.00 0.00 0.00 62 1011.9
20260505210329 20 34 3.2 12.9 0.00 0.00 0.00 62 1011.9
20260505205326 20 5 3.2 9.7 0.00 0.00 0.00 62 1011.9
20260505204321 19 86 0.0 3.2 0.00 0.00 0.00 67 1012.0
20260505203316 18 144 0.0 6.4 0.00 0.00 0.00 67 1012.0
20260505202332 18 120 0.0 11.3 0.00 0.00 0.00 67 1012.4
20260505201327 18 5 3.2 8.0 0.00 0.00 0.00 64 1012.5
20260505200319 18 46 0.0 4.8 0.00 0.00 0.00 66 1012.5
20260505195353 18 181 0.0 6.4 0.00 0.00 0.00 66 1012.4
20260505194343 17 294 0.0 6.4 0.00 0.00 0.00 68 1012.4
20260505193336 17 321 1.6 6.4 0.00 0.00 0.00 67 1012.4
20260505192345 17 263 0.0 6.4 0.00 0.00 0.00 68 1012.5
20260505191320 17 240 1.6 4.8 0.00 0.00 0.00 69 1012.5
20260505190331 17 330 0.0 3.2 0.00 0.00 0.00 70 1012.5
20260505185323 16 329 0.0 8.0 0.00 0.00 0.00 69 1012.5
20260505184356 16 329 0.0 6.4 0.00 0.00 0.00 71 1012.5
20260505183326 16 328 0.0 4.8 0.00 0.00 0.00 71 1012.5
20260505182338 16 322 0.0 0.0 0.00 0.00 0.00 72 1012.5
20260505181331 16 345 0.0 0.0 0.00 0.00 0.00 73 1012.5
20260505180327 16 345 0.0 0.0 0.00 0.00 0.00 74 1012.5
20260505175317 16 345 0.0 0.0 0.00 0.00 0.00 73 1012.4
20260505174331 16 345 0.0 0.0 0.00 0.00 0.00 71 1012.5
20260505173328 15 345 0.0 0.0 0.00 0.00 0.00 73 1012.5
20260505172342 15 345 0.0 0.0 0.00 0.00 0.00 75 1012.5
20260505171319 15 345 1.6 6.4 0.00 0.00 0.00 76 1012.5
20260505170330 15 304 0.0 1.6 0.00 0.00 0.00 74 1012.5
20260505165321 15 227 0.0 0.0 0.00 0.00 0.00 76 1012.5
20260505164334 14 205 0.0 0.0 0.00 0.00 0.00 75 1012.5
20260505163328 14 205 0.0 0.0 0.00 0.00 0.00 75 1012.5
20260505162325 14 252 0.0 3.2 0.00 0.00 0.00 76 1012.5
20260505161320 14 244 0.0 0.0 0.00 0.00 0.00 78 1012.5
20260505160322 14 244 0.0 0.0 0.00 0.00 0.00 79 1012.5
20260505153321 13 243 0.0 0.0 0.00 0.00 0.00 83 1012.5
20260505152315 13 243 0.0 0.0 0.00 0.00 0.00 83 1012.5
20260505151320 13 239 0.0 1.6 0.00 0.00 0.00 84 1012.5
20260505150331 13 298 0.0 4.8 0.00 0.00 0.00 84 1012.5
20260505140329 12 290 0.0 0.0 0.00 0.00 0.00 88 1012.3
20260505124327 12 290 0.0 0.0 0.00 0.00 0.00 87 1011.7
20260505123318 12 290 0.0 0.0 0.00 0.00 0.00 86 1011.7
20260505122329 12 290 0.0 0.0 0.00 0.00 0.00 86 1011.5
20260505121327 12 290 0.0 0.0 0.00 0.00 0.00 86 1011.5
20260505120327 12 290 0.0 0.0 0.00 0.00 0.00 86 1011.5
20260505115324 12 290 0.0 0.0 0.00 0.00 0.00 85 1011.4
20260505114335 12 290 0.0 0.0 0.00 0.00 0.00 86 1011.4
20260505113327 12 290 0.0 0.0 0.00 0.00 0.00 85 1011.4
20260505112317 12 312 0.0 0.0 0.00 0.00 0.00 85 1011.4
20260505111332 12 312 0.0 0.0 0.00 0.00 0.00 85 1011.2
20260505110325 12 311 0.0 1.6 0.00 0.00 0.00 85 1011.2
20260505101334 13 58 0.0 0.0 0.00 0.00 0.00 85 1011.1
20260505100326 13 58 0.0 0.0 0.00 0.00 0.00 85 1011.1
20260505095337 13 59 0.0 0.0 0.00 0.00 0.00 85 1011.1
20260505094329 13 59 0.0 0.0 0.00 0.00 0.00 84 1011.1
20260505093324 13 13 0.0 0.0 0.00 0.00 0.00 83 1011.1
20260505092334 13 13 0.0 3.2 0.00 0.00 0.00 82 1011.1
20260505091348 13 11 0.0 0.0 0.00 0.00 0.00 82 1011.1
20260505090319 13 11 0.0 0.0 0.00 0.00 0.00 82 1011.1
20260505085327 13 10 0.0 6.4 0.00 0.00 0.00 82 1011.1
20260505084358 13 40 0.0 0.0 0.00 0.00 0.00 82 1011.2
20260505083328 13 71 0.0 0.0 0.00 0.00 0.00 82 1011.2
20260505082319 13 71 0.0 0.0 0.00 0.00 0.00 81 1011.3
20260505081330 13 71 0.0 0.0 0.00 0.00 0.00 81 1011.3
20260505080321 13 74 0.0 0.0 0.00 0.00 0.00 81 1011.3
20260505075319 13 337 0.0 0.0 0.00 0.00 0.00 80 1011.4
20260505074333 13 337 0.0 1.6 0.00 0.00 0.00 79 1011.4
20260505073328 13 304 0.0 0.0 0.00 0.00 0.00 79 1011.4
20260505072323 13 304 0.0 3.2 0.00 0.00 0.00 78 1011.4
20260505071334 13 307 0.0 0.0 0.00 0.00 0.00 78 1011.4
20260505070349 14 305 0.0 0.0 0.00 0.00 0.00 78 1011.4
20260505065319 14 304 0.0 3.2 0.00 0.00 0.00 78 1011.4
20260505064331 14 294 0.0 1.6 0.00 0.00 0.00 78 1011.4
20260505063327 14 301 0.0 4.8 0.00 0.00 0.00 78 1011.4
20260505062340 14 302 0.0 0.0 0.00 0.00 0.00 78 1011.2
20260505061335 14 336 0.0 4.8 0.00 0.00 0.00 78 1011.0
20260505060326 14 297 0.0 1.6 0.00 0.00 0.00 78 1011.0
20260505055317 14 63 0.0 3.2 0.00 0.00 0.00 78 1010.9
20260505054328 14 322 0.0 4.8 0.00 0.00 0.00 78 1010.9
20260505053323 14 291 0.0 6.4 0.00 0.00 0.00 78 1010.9
20260505052316 14 338 1.6 9.7 0.00 0.00 0.00 78 1010.9
20260505051332 14 319 0.0 3.2 0.00 0.00 0.00 78 1010.9
20260505050327 14 24 0.0 4.8 0.00 0.00 0.00 78 1010.9
20260505041334 14 355 0.0 0.0 0.00 0.00 0.00 78 1010.4
20260505040326 14 319 0.0 6.4 0.00 0.00 0.00 78 1010.4
20260505035338 15 355 0.0 0.0 0.00 0.00 0.00 78 1010.1
20260505034330 15 22 0.0 6.4 0.00 0.00 0.00 78 1009.9
20260505033321 15 28 0.0 0.0 0.00 0.00 0.00 77 1009.9
20260505032331 15 33 0.0 3.2 0.00 0.00 0.00 78 1009.8
20260505031321 15 279 0.0 4.8 0.00 0.00 0.00 76 1009.4
20260505030315 15 302 3.2 11.3 0.00 0.00 0.00 75 1009.4
20260505025331 15 286 1.6 9.7 0.00 0.00 0.00 74 1009.3
20260505024321 16 11 1.6 11.3 0.00 0.00 0.00 74 1009.3
20260505023332 16 360 6.4 16.1 0.00 0.00 0.00 72 1009.3
20260505022322 16 28 1.6 16.1 0.00 0.00 0.00 71 1009.3
20260505021333 17 355 4.8 11.3 0.00 0.00 0.00 70 1009.2
20260505020326 17 297 3.2 19.3 0.00 0.00 0.00 68 1009.2
20260505015318 18 30 6.4 14.5 0.00 0.00 0.00 66 1008.9
20260505014332 18 296 3.2 16.1 0.00 0.00 0.00 64 1008.8
20260505013323 18 318 3.2 12.9 0.00 0.00 0.00 63 1008.8
20260505012340 19 335 8.0 17.7 0.00 0.00 0.00 62 1008.8
20260505011331 20 294 6.4 19.3 0.00 0.00 0.00 61 1008.8
20260505010328 20 289 3.2 14.5 0.00 0.00 0.00 60 1008.8
20260505005320 20 321 3.2 14.5 0.00 0.00 0.00 60 1008.8
20260505004336 20 300 1.6 14.5 0.00 0.00 0.00 61 1008.7
20260505003327 20 327 3.2 16.1 0.00 0.00 0.00 59 1008.7
20260505002322 21 15 4.8 17.7 0.00 0.00 0.00 59 1008.7
20260505001313 21 329 8.0 20.9 0.00 0.00 0.00 58 1008.7
20260505000331 21 350 6.4 17.7 0.00 0.00 0.00 57 1008.7
20260504235322 21 350 4.8 16.1 0.00 0.00 0.00 56 1008.8
20260504234335 21 348 4.8 16.1 0.00 0.00 0.00 58 1008.8
20260504233329 21 332 8.0 22.5 0.00 0.00 0.00 58 1008.8
20260504232320 21 337 6.4 16.1 0.00 0.00 0.00 59 1008.8
20260504231336 22 277 6.4 17.7 0.00 0.00 0.00 56 1008.8
20260504230328 22 5 3.2 12.9 0.00 0.00 0.00 59 1008.8
20260504225320 22 32 3.2 11.3 0.00 0.00 0.00 59 1008.8